Tracking 20093 objects as of 14-Dec-2019
HD Live streaming from Space Station
objects crossing your sky now

COSMOS 2251 DEB

Track COSMOS 2251 DEB now!
10-day predictions


NORAD ID: 36074
Int'l Code: 1993-036AYM
Perigee: 754.9 km
Apogee: 839.0 km
Inclination: 74.0 °
Period: 100.7 minutes
Semi major axis: 7167 km
RCS: 0.0022 m2 (small)
Launch date: June 16, 1993
Source: Commonwealth of Independent States (former USSR) (CIS)
Launch site: PLESETSK MISSILE AND SPACE COMPLEX (PKMTR)

Note: This is SATELLITE DEBRIS
aabbcc
Your satellite tracking list
Your tracking list is empty




NASA's NSSDC Master Catalog

Two Line Element Set (TLE):
1 36074U 93036AYM 19347.87811532  .00000410  00000-0  16440-3 0  9993
2 36074  73.9972  42.4096 0058693 280.5990  78.8552 14.30574706548322
Source of the keplerian elements: AFSPC